Tracking 29892 objects as of 21-Nov-2024
HD Live streaming from Space Station
objects crossing your sky now

COSMOS 1275 DEB

Track COSMOS 1275 DEB now!
10-day predictions


NORAD ID: 14405
Int'l Code: 1981-053JD
Perigee: 914.3 km
Apogee: 1,013.6 km
Inclination: 83.3 °
Period: 104.2 minutes
Semi major axis: 7334 km
RCS: 0.0139 m2 (small)
Launch date: June 4, 1981
Source: Commonwealth of Independent States (former USSR) (CIS)
Launch site: PLESETSK MISSILE AND SPACE COMPLEX (PKMTR)

Note: This is SATELLITE DEBRIS
Your satellite tracking list
Your tracking list is empty




NASA's NSSDC Master Catalog

Two Line Element Set (TLE):
1 14405U 81053JA  24325.02950838  .00001457  00000-0  13184-2 0  9998
2 14405  83.2659 158.8267 0067745 140.1740  20.1211 13.81994914165808
Source of the keplerian elements: AFSPC